DAOI

Ech Cheliff Airport

Airport
ICAO code
DAOI
IATA Code
QAS
Summary
ICAO Region
AFI
ICAO Territory
Location

, Chlef

Serving
Ech-cheliff
Elevation
463 ft
Coordinates
36° 12' 46" N , 1° 19' 54" E
Metar
DAOI 191200Z 08012KT CAVOK 22/00 Q1020

Runways

Designator Length Width Surface Rops
7/25 1650 30 ASP No/No

Airport map

Aerial View

SKYbrary Partners:

Safety knowledge contributed by: